| time (UTC) | temp C | wind direction | speed KPH | gust KPH | rain 1hr cm | rain 24hr cm | rain mn cm | humidity % | barometer mb |
| 20260510064553 | 17 | 90 | 8.0 | 27.4 | 0.00 | 0.20 | 0.00 | 82 | 1010.2 |
| 20260510063012 | 17 | 136 | 4.8 | 20.9 | 0.00 | 0.20 | 0.00 | 83 | 1010.1 |
| 20260510061508 | 17 | 104 | 3.2 | 16.1 | 0.00 | 0.20 | 0.00 | 82 | 1010.0 |
| 20260510060039 | 17 | 152 | 3.2 | 14.5 | 0.00 | 0.20 | 0.00 | 82 | 1009.9 |
| 20260510054514 | 17 | 97 | 3.2 | 14.5 | 0.00 | 0.20 | 0.00 | 82 | 1009.9 |
| 20260510053046 | 16 | 63 | 1.6 | 12.9 | 0.00 | 0.20 | 0.00 | 83 | 1009.8 |
| 20260510051544 | 16 | 141 | 4.8 | 12.9 | 0.00 | 0.20 | 0.00 | 84 | 1009.6 |
| 20260510050113 | 16 | 121 | 1.6 | 8.0 | 0.00 | 0.20 | 0.00 | 84 | 1009.5 |
| 20260510044550 | 16 | 114 | 0.0 | 4.8 | 0.00 | 0.20 | 0.00 | 84 | 1009.3 |
| 20260510043116 | 16 | 119 | 0.0 | 4.8 | 0.00 | 0.20 | 0.00 | 85 | 1009.3 |
| 20260510041555 | 15 | 128 | 0.0 | 6.4 | 0.00 | 0.20 | 0.00 | 86 | 1009.5 |
| 20260510040024 | 15 | 72 | 0.0 | 14.5 | 0.00 | 0.20 | 0.00 | 87 | 1009.3 |
| 20260510034513 | 15 | 79 | 6.4 | 17.7 | 0.00 | 0.20 | 0.00 | 87 | 1009.2 |
| 20260510033046 | 15 | 79 | 3.2 | 8.0 | 0.00 | 0.20 | 0.00 | 88 | 1009.4 |
| 20260510031551 | 15 | 136 | 0.0 | 4.8 | 0.00 | 0.20 | 0.00 | 88 | 1009.7 |
| 20260510030012 | 15 | 165 | 0.0 | 0.0 | 0.00 | 0.20 | 0.00 | 88 | 1009.9 |
| 20260510024504 | 15 | 165 | 0.0 | 4.8 | 0.00 | 0.20 | 0.00 | 87 | 1009.9 |
| 20260510023035 | 15 | 86 | 0.0 | 3.2 | 0.03 | 0.20 | 0.20 | 87 | 1010.1 |
| 20260510021537 | 15 | 86 | 0.0 | 3.2 | 0.05 | 0.20 | 0.20 | 87 | 1010.2 |
| 20260510020101 | 15 | 95 | 4.8 | 11.3 | 0.05 | 0.20 | 0.20 | 87 | 1010.3 |
| 20260510014615 | 15 | 111 | 0.0 | 8.0 | 0.08 | 0.20 | 0.20 | 87 | 1010.4 |
| 20260510013026 | 15 | 121 | 0.0 | 4.8 | 0.08 | 0.18 | 0.18 | 87 | 1010.2 |
| 20260510011522 | 15 | 103 | 1.6 | 9.7 | 0.05 | 0.15 | 0.15 | 86 | 1010.3 |
| 20260510010053 | 15 | 107 | 1.6 | 6.4 | 0.05 | 0.15 | 0.15 | 86 | 1010.2 |
| 20260510004527 | 15 | 128 | 0.0 | 3.2 | 0.05 | 0.13 | 0.13 | 86 | 1010.6 |
| 20260510003105 | 15 | 130 | 0.0 | 4.8 | 0.03 | 0.10 | 0.10 | 86 | 1010.7 |
| 20260510001555 | 15 | 128 | 1.6 | 9.7 | 0.03 | 0.10 | 0.10 | 86 | 1010.6 |
| 20260510000020 | 15 | 217 | 0.0 | 3.2 | 0.00 | 0.08 | 0.08 | 86 | 1010.5 |
| 20260509234602 | 15 | 217 | 0.0 | 4.8 | 0.00 | 0.08 | 0.08 | 86 | 1010.6 |
| 20260509233026 | 15 | 155 | 1.6 | 4.8 | 0.03 | 0.08 | 0.08 | 86 | 1010.4 |
| 20260509231521 | 16 | 154 | 1.6 | 4.8 | 0.03 | 0.08 | 0.08 | 85 | 1010.8 |
| 20260509230053 | 16 | 157 | 0.0 | 1.6 | 0.03 | 0.08 | 0.08 | 85 | 1011.3 |
| 20260509224556 | 16 | 157 | 0.0 | 3.2 | 0.03 | 0.08 | 0.08 | 84 | 1011.6 |
| 20260509223017 | 16 | 157 | 0.0 | 1.6 | 0.00 | 0.05 | 0.05 | 83 | 1011.9 |
| 20260509221514 | 16 | 157 | 0.0 | 3.2 | 0.00 | 0.05 | 0.05 | 82 | 1011.7 |
| 20260509220042 | 16 | 156 | 0.0 | 4.8 | 0.00 | 0.05 | 0.05 | 81 | 1011.2 |
| 20260509214537 | 17 | 164 | 0.0 | 3.2 | 0.05 | 0.05 | 0.05 | 79 | 1011.5 |
| 20260509213006 | 17 | 164 | 0.0 | 4.8 | 0.05 | 0.05 | 0.05 | 77 | 1011.5 |
| 20260509211602 | 17 | 112 | 0.0 | 8.0 | 0.05 | 0.05 | 0.05 | 76 | 1011.1 |
| 20260509210032 | 17 | 92 | 3.2 | 12.9 | 0.05 | 0.05 | 0.05 | 75 | 1011.3 |
| 20260509204524 | 17 | 61 | 6.4 | 12.9 | 0.03 | 0.03 | 0.03 | 73 | 1012.1 |
| 20260509203054 | 18 | 96 | 0.0 | 8.0 | 0.03 | 0.03 | 0.03 | 71 | 1011.9 |
| 20260509201557 | 18 | 82 | 3.2 | 9.7 | 0.03 | 0.03 | 0.03 | 69 | 1011.5 |
| 20260509200018 | 19 | 69 | 4.8 | 16.1 | 0.00 | 0.00 | 0.00 | 65 | 1011.5 |
| 20260509194513 | 19 | 95 | 3.2 | 17.7 | 0.00 | 0.00 | 0.00 | 62 | 1011.5 |
| 20260509193044 | 19 | 115 | 6.4 | 17.7 | 0.00 | 0.00 | 0.00 | 61 | 1011.4 |
| 20260509191540 | 19 | 134 | 4.8 | 16.1 | 0.00 | 0.00 | 0.00 | 60 | 1011.2 |
| 20260509190007 | 19 | 121 | 8.0 | 17.7 | 0.00 | 0.00 | 0.00 | 60 | 1011.0 |
| 20260509184504 | 19 | 69 | 4.8 | 14.5 | 0.00 | 0.00 | 0.00 | 61 | 1010.8 |
| 20260509183033 | 19 | 114 | 4.8 | 12.9 | 0.00 | 0.00 | 0.00 | 61 | 1010.9 |
| 20260509181529 | 20 | 137 | 3.2 | 16.1 | 0.00 | 0.00 | 0.00 | 61 | 1011.0 |
| 20260509174556 | 20 | 101 | 4.8 | 9.7 | 0.00 | 0.00 | 0.00 | 61 | 1011.0 |
| 20260509173024 | 20 | 151 | 3.2 | 16.1 | 0.00 | 0.00 | 0.00 | 61 | 1010.9 |
| 20260509171532 | 20 | 94 | 3.2 | 12.9 | 0.00 | 0.00 | 0.00 | 61 | 1011.1 |
| 20260509170056 | 21 | 138 | 6.4 | 12.9 | 0.00 | 0.00 | 0.00 | 60 | 1011.2 |
| 20260509164551 | 21 | 119 | 3.2 | 16.1 | 0.00 | 0.00 | 0.00 | 60 | 1011.3 |
| 20260509163014 | 21 | 170 | 4.8 | 16.1 | 0.00 | 0.00 | 0.00 | 59 | 1011.0 |
| 20260509161507 | 21 | 107 | 6.4 | 20.9 | 0.00 | 0.00 | 0.00 | 59 | 1011.1 |
| 20260509160037 | 22 | 109 | 4.8 | 24.1 | 0.00 | 0.00 | 0.00 | 57 | 1011.1 |
| 20260509154533 | 22 | 90 | 8.0 | 19.3 | 0.00 | 0.00 | 0.00 | 55 | 1010.9 |
| 20260509153103 | 22 | 86 | 3.2 | 12.9 | 0.00 | 0.00 | 0.00 | 57 | 1011.0 |
| 20260509151539 | 22 | 117 | 6.4 | 17.7 | 0.00 | 0.00 | 0.00 | 57 | 1011.4 |
| 20260509150015 | 22 | 127 | 6.4 | 29.0 | 0.00 | 0.00 | 0.00 | 55 | 1011.6 |
| 20260509144501 | 22 | 113 | 3.2 | 17.7 | 0.00 | 0.00 | 0.00 | 55 | 1011.9 |
| 20260509143035 | 22 | 90 | 6.4 | 17.7 | 0.00 | 0.00 | 0.00 | 56 | 1012.1 |
| 20260509141532 | 21 | 111 | 6.4 | 19.3 | 0.00 | 0.00 | 0.00 | 54 | 1012.3 |
| 20260509140104 | 22 | 144 | 3.2 | 24.1 | 0.00 | 0.00 | 0.00 | 53 | 1012.6 |
| 20260509134625 | 22 | 134 | 4.8 | 20.9 | 0.00 | 0.00 | 0.00 | 56 | 1012.8 |
| 20260509133023 | 21 | 140 | 3.2 | 16.1 | 0.00 | 0.00 | 0.00 | 56 | 1013.0 |
| 20260509131525 | 21 | 105 | 6.4 | 17.7 | 0.00 | 0.00 | 0.00 | 56 | 1013.4 |
| 20260509130050 | 21 | 93 | 4.8 | 14.5 | 0.00 | 0.00 | 0.00 | 56 | 1013.5 |
| 20260509124525 | 21 | 115 | 8.0 | 17.7 | 0.00 | 0.00 | 0.00 | 57 | 1013.5 |
| 20260509123056 | 21 | 153 | 6.4 | 20.9 | 0.00 | 0.00 | 0.00 | 58 | 1013.6 |
| 20260509121530 | 21 | 78 | 9.7 | 27.4 | 0.00 | 0.00 | 0.00 | 57 | 1013.8 |
| 20260509120101 | 21 | 138 | 11.3 | 25.7 | 0.00 | 0.00 | 0.00 | 56 | 1014.0 |
| 20260509114556 | 21 | 150 | 8.0 | 27.4 | 0.00 | 0.00 | 0.00 | 55 | 1014.1 |
| 20260509113024 | 22 | 142 | 11.3 | 35.4 | 0.00 | 0.00 | 0.00 | 53 | 1014.2 |
| 20260509111520 | 22 | 297 | 6.4 | 30.6 | 0.00 | 0.00 | 0.00 | 54 | 1014.4 |
| 20260509110051 | 21 | 121 | 11.3 | 24.1 | 0.00 | 0.00 | 0.00 | 53 | 1014.6 |
| 20260509104542 | 21 | 111 | 11.3 | 30.6 | 0.00 | 0.00 | 0.00 | 52 | 1014.6 |
| 20260509103010 | 21 | 132 | 6.4 | 22.5 | 0.00 | 0.00 | 0.00 | 52 | 1014.8 |
| 20260509101506 | 21 | 113 | 9.7 | 22.5 | 0.00 | 0.00 | 0.00 | 54 | 1014.9 |
| 20260509100036 | 21 | 126 | 9.7 | 19.3 | 0.00 | 0.00 | 0.00 | 58 | 1014.8 |
| 20260509094533 | 21 | 107 | 8.0 | 19.3 | 0.00 | 0.00 | 0.00 | 60 | 1014.9 |
| 20260509093103 | 21 | 112 | 6.4 | 17.7 | 0.00 | 0.00 | 0.00 | 60 | 1014.9 |
| 20260509091538 | 21 | 110 | 4.8 | 16.1 | 0.00 | 0.00 | 0.00 | 57 | 1014.9 |
| 20260509090006 | 21 | 59 | 6.4 | 20.9 | 0.00 | 0.00 | 0.00 | 56 | 1015.1 |
| 20260509084601 | 20 | 90 | 9.7 | 17.7 | 0.00 | 0.00 | 0.00 | 57 | 1015.1 |
| 20260509083036 | 20 | 105 | 4.8 | 12.9 | 0.00 | 0.00 | 0.00 | 58 | 1015.3 |
| 20260509081504 | 20 | 129 | 4.8 | 16.1 | 0.00 | 0.00 | 0.00 | 58 | 1015.3 |
| 20260509080037 | 20 | 121 | 4.8 | 12.9 | 0.00 | 0.00 | 0.00 | 57 | 1015.5 |
| 20260509074530 | 20 | 143 | 4.8 | 12.9 | 0.00 | 0.00 | 0.00 | 59 | 1015.5 |
| 20260509073103 | 19 | 144 | 3.2 | 11.3 | 0.00 | 0.00 | 0.00 | 64 | 1015.4 |
| 20260509071536 | 18 | 122 | 1.6 | 8.0 | 0.00 | 0.00 | 0.00 | 70 | 1015.5 |